Location: Wanzleben
(52.0609°N, 11.4408°E)
Time: 18:47:50
(UTC+00:00)

Cosmos 1766 - Pass Details

Date: 18 September 2020
Orbit: 522 x 543 km, 82.5° (Epoch: 22 October)

Event Time Altitude Azimuth Distance (km) Brightness Sun altitude
Exits shadow 19:34:05 48° 67° (ENE) 705 3.6 -20.2°
Drops below altitude 10° 19:37:27 10° 19° (NNE) 1,805 6.1 -20.7°
Sets 19:39:39 0° 15° (NNE) 2,705 7.1 -20.9°
